Sturgis, MI

8:27 AM EDT on September 24, 2017 (GMT -0400)
Kirsch Municipal

Weather History for KIRS - February, 2013

Change the Weather History Date:

Saturday, February 16, 2013

  Actual Average (KHAI) Record (KHAI)
Temperature  
Mean Temperature 16 °F -  
Max Temperature 21 °F 34 °F 66 °F (1954)
Min Temperature 12 °F 17 °F -13 °F (1963)
Degree Days  
Heating Degree Days 48    
Moisture  
Dew Point 13 °F    
Average Humidity 82    
Maximum Humidity 100    
Minimum Humidity 58    
Precipitation  
Precipitation 0.00 in - - ()
Sea Level Pressure  
Sea Level Pressure 30.05 in    
Wind  
Wind Speed 4 mph (WNW)    
Max Wind Speed 18 mph    
Max Gust Speed 24 mph    
Visibility 7 miles    
Events Snow    
Averages and records for this station are not official NWS values.
T = Trace of Precipitation, MM = Missing Value Source: NWS Daily Summary

Daily Weather History Graph

Daily Weather History Graph

Search for Another Location

Airport or City:

Trip Planner

Search our weather history database for the weather conditions in past years. The results will help you decide how hot, cold, wet, or windy it might be!

Date:

Astronomy

Feb. 16, 2013 Rise Set
Actual Time 7:35 AM EST 6:16 PM EST
Civil Twilight 7:07 AM EST 6:45 PM EST
Nautical Twilight 6:34 AM EST 7:17 PM EST
Astronomical Twilight 6:02 AM EST 7:49 PM EST
Moon 10:41 AM EST (2/16) 12:22 AM EST (2/16)
Length of Visible Light 11h 37m
Length of Day
10h 40m
Waxing Crescent, 39% of the Moon is Illuminated
Feb 16
Waxing Crescent
Feb 17
First Quarter
Feb 25
Full
Mar 4
Last Quarter
Mar 11
New

Hourly Weather History & Observations

Time (EST) Temp. Windchill Dew Point Humidity Pressure Visibility Wind Dir Wind Speed Gust Speed Precip Events Conditions
12:15 AM 21.2 °F - 19.4 °F 93% 30.09 in 7.0 mi Calm Calm - N/A Snow Light Snow
12:34 AM 21.2 °F - 19.4 °F 93% 30.08 in 10.0 mi Calm Calm - N/A Snow Light Snow
12:55 AM 21.2 °F 16.4 °F 19.4 °F 93% 30.08 in 5.0 mi West 3.5 mph - N/A Snow Light Snow
1:14 AM 21.2 °F 16.4 °F 19.4 °F 93% 30.08 in 2.0 mi SW 3.5 mph - N/A Snow Light Snow
1:35 AM 21.2 °F 16.4 °F 19.4 °F 93% 30.07 in 2.0 mi SW 3.5 mph - N/A Snow Light Snow
1:54 AM 21.2 °F - 19.4 °F 93% 30.07 in 2.5 mi Calm Calm - N/A Snow Light Snow
2:15 AM 21.2 °F - 19.4 °F 93% 30.06 in 4.0 mi Calm Calm - N/A Snow Light Snow
2:35 AM 21.2 °F - 19.4 °F 93% 30.06 in 2.0 mi Calm Calm - N/A Snow Light Snow
2:54 AM 21.2 °F - 19.4 °F 93% 30.06 in 5.0 mi Calm Calm - N/A Snow Light Snow
3:15 AM 21.2 °F - 19.4 °F 93% 30.05 in 7.0 mi Calm Calm - N/A Snow Light Snow
3:35 AM 21.2 °F - 19.4 °F 93% 30.04 in 5.0 mi Calm Calm - N/A Snow Light Snow
3:54 AM 21.2 °F - 19.4 °F 93% 30.04 in 1.0 mi Calm Calm - N/A Snow Snow
4:15 AM 19.4 °F - 19.4 °F 100% 30.03 in 7.0 mi Calm Calm - N/A Snow Light Snow
4:34 AM 19.4 °F - 17.6 °F 93% 30.03 in 10.0 mi Calm Calm - N/A   Overcast
4:54 AM 19.4 °F - 17.6 °F 93% 30.03 in 7.0 mi Calm Calm - N/A   Mostly Cloudy
5:15 AM 17.6 °F - 15.8 °F 93% 30.03 in 7.0 mi Calm Calm - N/A   Scattered Clouds
5:34 AM 17.6 °F - 17.6 °F 100% 30.02 in 7.0 mi Calm Calm - N/A Snow Light Snow
5:54 AM 19.4 °F 14.3 °F 17.6 °F 93% 30.02 in 2.0 mi West 3.5 mph - N/A Snow Light Snow
6:15 AM 19.4 °F 11.5 °F 19.4 °F 100% 30.02 in 2.5 mi WNW 5.8 mph - N/A Snow Light Snow
6:34 AM 19.4 °F 10.4 °F 17.6 °F 93% 30.02 in 5.0 mi NW 6.9 mph - N/A Snow Light Snow
6:55 AM 19.4 °F 12.8 °F 17.6 °F 93% 30.02 in 5.0 mi NW 4.6 mph - N/A Snow Light Snow
7:15 AM 19.4 °F 12.8 °F 17.6 °F 93% 30.02 in 10.0 mi NW 4.6 mph - N/A   Overcast
7:34 AM 19.4 °F 14.3 °F 17.6 °F 93% 30.02 in 7.0 mi NW 3.5 mph - N/A Snow Light Snow
7:55 AM 19.4 °F - 17.6 °F 93% 30.03 in 3.0 mi Calm Calm - N/A Snow Light Snow
8:15 AM 19.4 °F 14.3 °F 15.8 °F 86% 30.03 in 7.0 mi West 3.5 mph - N/A Snow Light Snow
8:34 AM 19.4 °F 12.8 °F 17.6 °F 93% 30.03 in 10.0 mi West 4.6 mph - N/A   Overcast
8:55 AM 19.4 °F 11.5 °F 15.8 °F 86% 30.03 in 10.0 mi West 5.8 mph - N/A   Overcast
9:15 AM 19.4 °F 11.5 °F 15.8 °F 86% 30.03 in 10.0 mi West 5.8 mph - N/A   Overcast
9:34 AM 19.4 °F 10.4 °F 15.8 °F 86% 30.03 in 10.0 mi West 6.9 mph - N/A   Overcast
9:55 AM 19.4 °F 7.2 °F 14.0 °F 80% 30.03 in 10.0 mi WNW 11.5 mph - N/A   Mostly Cloudy
10:14 AM 21.2 °F 11.7 °F 15.8 °F 80% 30.03 in 10.0 mi WNW 8.1 mph - N/A   Mostly Cloudy
10:34 AM 19.4 °F 8.6 °F 15.8 °F 86% 30.03 in 10.0 mi West 9.2 mph 18.4 mph N/A   Mostly Cloudy
10:55 AM 21.2 °F 11.7 °F 15.8 °F 80% 30.03 in 1.8 mi WNW 8.1 mph - N/A Snow Light Snow
11:15 AM 19.4 °F 8.6 °F 15.8 °F 86% 30.03 in 1.2 mi WNW 9.2 mph 17.3 mph N/A Snow Light Snow
11:34 AM 19.4 °F 7.9 °F 15.8 °F 86% 30.04 in 0.5 mi North 10.4 mph - N/A Snow Snow
11:55 AM 19.4 °F 7.9 °F 15.8 °F 86% 30.03 in 2.5 mi NNW 10.4 mph - N/A Snow Light Snow
12:15 PM 17.6 °F 3.2 °F 14.0 °F 86% 30.04 in 0.8 mi NW 15.0 mph 19.6 mph N/A Snow Light Snow
12:34 PM 19.4 °F 6.0 °F 14.0 °F 80% 30.04 in 1.2 mi NW 13.8 mph 18.4 mph N/A Snow Light Snow
12:55 PM 19.4 °F 8.6 °F 12.2 °F 74% 30.03 in 5.0 mi NNW 9.2 mph - N/A Snow Light Snow
1:14 PM 19.4 °F 7.2 °F 8.6 °F 63% 30.03 in 10.0 mi NW 11.5 mph 20.7 mph N/A Snow Light Snow
1:34 PM 19.4 °F 7.2 °F 6.8 °F 58% 30.03 in 10.0 mi WNW 11.5 mph 24.2 mph N/A   Overcast
1:55 PM 19.4 °F 4.1 °F 6.8 °F 58% 30.02 in 10.0 mi NW 18.4 mph 23.0 mph N/A   Overcast
2:14 PM 19.4 °F 7.9 °F 6.8 °F 58% 30.02 in 10.0 mi WNW 10.4 mph 20.7 mph N/A   Overcast
2:35 PM 19.4 °F 7.9 °F 6.8 °F 58% 30.03 in 10.0 mi WNW 10.4 mph 19.6 mph N/A   Overcast
2:55 PM 17.6 °F 4.3 °F 5.0 °F 58% 30.03 in 10.0 mi NW 12.7 mph 21.9 mph N/A   Overcast
3:14 PM 17.6 °F 3.2 °F 6.8 °F 63% 30.03 in 10.0 mi WNW 15.0 mph 19.6 mph N/A   Overcast
3:35 PM 17.6 °F 2.7 °F 6.8 °F 63% 30.03 in 7.0 mi NW 16.1 mph - N/A   Mostly Cloudy
3:55 PM 17.6 °F 5.7 °F 6.8 °F 63% 30.03 in 10.0 mi WNW 10.4 mph 16.1 mph N/A   Mostly Cloudy
4:14 PM 17.6 °F 4.3 °F 6.8 °F 63% 30.04 in 10.0 mi WNW 12.7 mph 20.7 mph N/A Snow Light Snow
4:35 PM 15.8 °F 4.2 °F 8.6 °F 73% 30.04 in 4.0 mi WNW 9.2 mph 20.7 mph N/A Snow Light Snow
4:55 PM 15.8 °F 2.1 °F 6.8 °F 68% 30.05 in 7.0 mi WNW 12.7 mph - N/A   Scattered Clouds
5:14 PM 15.8 °F 2.1 °F 6.8 °F 68% 30.05 in 7.0 mi WNW 12.7 mph 20.7 mph N/A   Mostly Cloudy
5:35 PM 15.8 °F 2.7 °F 6.8 °F 68% 30.05 in 10.0 mi West 11.5 mph 17.3 mph N/A   Mostly Cloudy
5:55 PM 15.8 °F 2.1 °F 6.8 °F 68% 30.05 in 10.0 mi WNW 12.7 mph - N/A   Scattered Clouds
6:14 PM 15.8 °F 4.2 °F 5.0 °F 62% 30.06 in 10.0 mi WNW 9.2 mph - N/A   Clear
6:35 PM 14.0 °F 3.9 °F 6.8 °F 73% 30.06 in 10.0 mi WNW 6.9 mph 10.4 mph N/A   Clear
6:55 PM 12.2 °F 0.7 °F 5.0 °F 73% 30.07 in 10.0 mi WNW 8.1 mph - N/A   Clear
7:14 PM 12.2 °F 2.9 °F 6.8 °F 79% 30.07 in 10.0 mi WNW 5.8 mph - N/A   Clear
7:35 PM 12.2 °F 4.3 °F 5.0 °F 73% 30.08 in 10.0 mi WNW 4.6 mph - N/A   Clear
7:55 PM 12.2 °F 4.3 °F 5.0 °F 73% 30.08 in 10.0 mi West 4.6 mph - N/A   Clear
8:14 PM 12.2 °F 4.3 °F 6.8 °F 79% 30.08 in 10.0 mi West 4.6 mph - N/A   Clear
8:35 PM 12.2 °F 4.3 °F 6.8 °F 79% 30.08 in 10.0 mi West 4.6 mph - N/A   Scattered Clouds
8:55 PM 12.2 °F 4.3 °F 6.8 °F 79% 30.08 in 10.0 mi WNW 4.6 mph - N/A   Scattered Clouds
9:14 PM 12.2 °F 4.3 °F 8.6 °F 85% 30.08 in 10.0 mi West 4.6 mph - N/A   Mostly Cloudy
9:35 PM 12.2 °F 4.3 °F 8.6 °F 85% 30.08 in 10.0 mi West 4.6 mph - N/A   Overcast
9:55 PM 12.2 °F 2.9 °F 8.6 °F 85% 30.08 in 10.0 mi West 5.8 mph - N/A   Overcast
10:14 PM 12.2 °F 2.9 °F 8.6 °F 85% 30.08 in 4.0 mi West 5.8 mph - N/A Snow Light Snow
10:35 PM 12.2 °F 6.1 °F 8.6 °F 85% 30.08 in 5.0 mi WNW 3.5 mph - N/A Snow Light Snow
10:55 PM 12.2 °F 4.3 °F 8.6 °F 85% 30.08 in 5.0 mi West 4.6 mph - N/A Snow Light Snow
11:14 PM 12.2 °F 4.3 °F 10.4 °F 92% 30.08 in 3.0 mi West 4.6 mph - N/A Snow Light Snow
11:35 PM 12.2 °F 1.7 °F 10.4 °F 92% 30.07 in 7.0 mi West 6.9 mph - N/A Snow Light Snow
11:54 PM 12.2 °F 6.1 °F 10.4 °F 92% 30.07 in 10.0 mi West 3.5 mph - N/A Snow Light Snow